Location: George Washington National Forest Helicopter Landing Site
(38.6463°N, 79.0851°W)
Time: 06:10:57
(UTC-04:00)

Tiros 1 despin weight - Pass Details

Date: 28 August 2019
Orbit: 593 x 643 km, 48.2° (Epoch: 20 October)

Event Time Altitude Azimuth Distance (km) Brightness Sun altitude
Rises 21:57:15 0° 234° (SW) 2,812 ? -23.0°
Reaches altitude 10° 21:59:31 10° 233° (SW) 1,914 ? -23.4°
Enters shadow 22:03:12 62° 223° (SW) 669 ? -24.0°
Maximum altitude 22:03:54 83° 146° (SE) 601 - -24.1°
Drops below altitude 10° 22:08:20 10° 59° (ENE) 1,933 - -24.8°
Sets 22:10:39 0° 58° (ENE) 2,843 - -25.2°
